Lid_Strength_Index
6 7 8 7 9 9 9 10 9 7 7 6 6 5 5 5 4 4 3 2 0 -0 -1 -1 -1 -1 -1
7 9 9 8 9 11 10 9 11 10 8 7 7 6 6 5 5 5 4 3 2 1 0 -0 -1 -1 -0
9 9 10 10 11 12 12 12 11 10 9 9 8 7 7 6 6 5 4 4 2 2 1 1 -0 0 0
10 11 10 11 11 12 13 13 13 12 11 10 10 9 8 7 7 5 5 4 3 2 2 2 2 1 1
11 12 12 12 13 12 13 13 14 14 14 13 14 13 12 9 7 6 5 4 3 3 3 3 2 2 2
11 10 11 11 12 13 13 14 15 15 15 15 15 15 13 11 7 6 5 5 5 5 5 4 3 3 4
8 9 10 11 12 13 14 15 15 15 15 15 15 15 14 12 9 7 6 6 6 6 6 6 5 4 5
7 10 10 10 11 12 13 14 15 15 15 15 16 15 15 14 11 9 8 7 7 6 6 6 6 6 6
8 9 9 10 11 13 15 16 17 16 16 15 16 15 15 15 14 10 9 8 7 6 6 6 6 6 7
11 10 10 10 11 14 14 17 16 17 15 16 17 17 16 15 14 14 13 10 8 7 6 6 6 8 8
12 13 13 13 14 15 14 15 16 16 15 16 17 17 17 17 15 15 15 14 13 12 10 9 7 7 9
14 15 15 15 15 15 15 16 15 15 13 15 17 17 17 16 16 16 17 16 15 14 13 11 9 7 7
14 15 14 14 15 16 16 16 15 14 14 15 15 15 16 18 18 17 18 17 17 17 16 16 14 13 11
14 14 14 15 15 16 16 17 18 18 15 16 17 17 18 18 18 20 18 21 18 18 17 16 14 13 12
13 14 14 15 15 15 16 17 18 19 17 15 15 15 16 18 19 17 21 19 19 20 17 17 16 14 13
13 13 13 14 15 15 16 17 19 19 19 16 16 16 16 16 14 19 20 22 19 20 17 16 17 15 14
12 12 13 13 13 14 15 16 16 19 20 18 17 20 23 21 18 13 21 22 17 16 15 16 17 15 14